This is the latest recevied weather packets stored in our database for station/object NC4M. If no packets are shown the sender has not sent any weather packets the latest 10 day(s).
| Time | Temp. | Humidity | Pressure | Rain* | Wind** | Luminosity | Snow |
|---|---|---|---|---|---|---|---|
| 1777564397 | 15.56° C | 36% | 1019.9 hPa | 0 mm | - | 754 W/m² | - |
| 1777564094 | 16.11° C | 37% | 1019.7 hPa | 0 mm | - | 749 W/m² | - |
| 1777563790 | 16.67° C | 36% | 1019.5 hPa | 0 mm | - | 112 W/m² | - |
| 1777563486 | 16.11° C | 36% | 1019.7 hPa | 0 mm | - | 213 W/m² | - |
| 1777563185 | 15.56° C | 43% | 1019.6 hPa | 0 mm | - | 658 W/m² | - |
| 1777562882 | 15° C | 36% | 1019.6 hPa | 0 mm | - | 530 W/m² | - |
| 1777562579 | 15° C | 36% | 1019.4 hPa | 0 mm | - | 157 W/m² | - |
| 1777562277 | 15° C | 41% | 1019.5 hPa | 0 mm | - | 71 W/m² | - |
| 1777561974 | 14.44° C | 37% | 1019.4 hPa | 0 mm | - | 106 W/m² | - |
| 1777561671 | 14.44° C | 41% | 1019.4 hPa | 0 mm | - | 237 W/m² | - |
| 1777561366 | 15° C | 37% | 1019.5 hPa | 0 mm | - | 310 W/m² | - |
| 1777561062 | 15° C | 48% | 1019.4 hPa | 0 mm | - | 64 W/m² | - |
| 1777560758 | 15° C | 43% | 1019.5 hPa | 0 mm | - | 64 W/m² | - |
| 1777560455 | 15° C | 48% | 1019.5 hPa | 0 mm | - | 52 W/m² | - |
| 1777560153 | 14.44° C | 47% | 1019.5 hPa | 0 mm | - | 260 W/m² | - |
| 1777559849 | 14.44° C | 47% | 1019.5 hPa | 0 mm | - | 52 W/m² | - |
| 1777559545 | 14.44° C | 48% | 1019.6 hPa | 0 mm | - | 111 W/m² | - |
| 1777559243 | 14.44° C | 55% | 1019.5 hPa | 0 mm | - | 87 W/m² | - |
| 1777558938 | 13.89° C | 56% | 1019.7 hPa | 0 mm | - | 63 W/m² | - |
| 1777558634 | 13.89° C | 56% | 1019.7 hPa | 0 mm | - | 374 W/m² | - |
| 1777558329 | 13.89° C | 52% | 1019.5 hPa | 0 mm | - | 185 W/m² | - |
| 1777558027 | 13.33° C | 55% | 1019.4 hPa | 0 mm | - | 60 W/m² | - |
| 1777557723 | 12.78° C | 57% | 1019.6 hPa | 0 mm | - | 112 W/m² | - |
| 1777557419 | 12.78° C | 56% | 1019.7 hPa | 0 mm | - | 59 W/m² | - |
| 1777557115 | 12.78° C | 57% | 1019.8 hPa | 0 mm | - | 65 W/m² | - |
* Rain latest hour (hover to see other rain measurements)
** Current wind speed in m/s (hover to see current wind gust speed)